Regional Weather Roundup
Issued by NWS

Home | Current Version | Previous Version | Text Only | Print | Product List | Glossary Off
Versions: 1 2 3 4 5 6 7 8 9 10 11 12 13 14 15 16 17 18 19 20 21 22 23 24 25 26 27 28 29 30 31 32 33 34 35 36 37 38 39 40 41 42 43 44 45 46 47 48 49 50

000
ASUS43 KMPX 281810
RWRMN
WEATHER ROUNDUP FOR MINNESOTA
NATIONAL WEATHER SERVICE TWIN CITIES/CHANHASSEN MN
100 PM CDT FRI APR 28 2017


NOTE: "FAIR" INDICATES FEW OR NO CLOUDS BELOW 12,000 FEET WITH NO
SIGNIFICANT WEATHER AND/OR OBSTRUCTIONS TO VISIBILITY. N/A MEANS
CURRENT SKY AND/OR WEATHER CONDITIONS ARE NOT AVAILABLE.

MNZ060>063-068>070-281900-
   Twin Cities Metro

CITY           SKY/WX    TMP DP  RH WIND       PRES   REMARKS
TWIN CITIES    CLOUDY    47  27  45 N10       29.95S
6HR MIN TEMP:  37; 6HR MAX TEMP:  48;

ST PAUL        CLOUDY    46  28  49 NW7G21    29.95F
CRYSTAL        CLOUDY    45  25  45 CALM      29.94F
LAKEVILLE      MOSUNNY   45  28  53 N8        29.94R
EDEN PRAIRIE   CLOUDY    48  29  47 N9        29.93F
6HR MIN TEMP:  38; 6HR MAX TEMP:  48;

SOUTH ST PAUL  CLOUDY    45  26  47 N6        29.95R
LAKE ELMO      FAIR      45  30  57 NW10      29.94F
$$
MNZ001>005-007-008-013>017-022>024-027-028-281900-
   Northwest Minnesota

CITY           SKY/WX    TMP DP  RH WIND       PRES   REMARKS
BEMIDJI        SUNNY     40  21  46 NW12      29.93R
HALLOCK        SUNNY     48  16  27 N13       29.98R
ROSEAU         SUNNY     45  19  36 N8        29.95R
WARROAD        SUNNY     43  18  36 NW9       29.95R
THIEF RVR FALL SUNNY     43  21  41 NW14G21   29.98R
CROOKSTON      SUNNY     45  28  53 N14       30.00R
FOSSTON        SUNNY     45  19  36 NW15G21   29.96S
DETROIT LAKES  SUNNY     43  30  61 N9G17     29.98S
MOORHEAD       SUNNY     45  27  49 N13       30.00F
PARK RAPIDS    SUNNY     47  19  33 NW17      29.93R
MAHNOMEN       FAIR      43  25  48 NW9       29.97S
$$
MNZ006-009>011-018-025>026-281900-
   North Central Minnesota

CITY           SKY/WX    TMP DP  RH WIND       PRES   REMARKS
BAUDETTE       SUNNY     40  20  44 NW18G26   29.91R
FLAG ISLAND    MOSUNNY   39  18  41 NW16      29.93R
INTL FALLS     MOSUNNY   37  23  56 N14       29.89R
6HR MIN TEMP:  28; 6HR MAX TEMP:  37; 6HR PCP:  0.01;

WASKISH        CLOUDY    45  19  36 N10G20    29.92R
BIG FORK       SUNNY     45  19  36 NW10G18   29.88R
LONGVILLE      SUNNY     45  21  39 W9        29.93R
GRAND RAPIDS   SUNNY     43  23  45 NW16      29.91R
CRANE LAKE     PTSUNNY   36  25  64 NW8G17    29.88R
ORR            CLOUDY    39  19  45 NW12G21   29.84R
COOK           PTSUNNY   41  23  48 W16G24    29.86R
WALKER         FAIR      41  22  46 NW10G16   29.93R
$$
MNZ012-019>021-037-281900-
   Northeast Minnesota

CITY           SKY/WX    TMP DP  RH WIND       PRES   REMARKS
DULUTH         PTSUNNY   41  28  60 W16       29.88R
6HR MIN TEMP:  29; 6HR MAX TEMP:  41;

ELY            CLOUDY    37  21  52 W13G25    29.82R
HIBBING        MOSUNNY   42  23  46 NW15      29.86R
EVELETH        MOSUNNY   41  20  42 NW14G20   29.87R
DULUTH HARBOR  PTSUNNY   43  27  52 NW10      29.92S
TWO HARBORS    CLOUDY    43  30  61 W12G17    29.86R
SILVER BAY     CLOUDY    41  28  60 W7G18     29.84R
GRAND MARAIS     N/A     35  27  72 W12G17    29.84R WCI  27
G MARAIS ARPRT CLOUDY    30  21  69 W3        29.78R
$$
MNZ029>031-032-039>041-046>048-054>057-064-281900-
   West Central Minnesota

CITY           SKY/WX    TMP DP  RH WIND       PRES   REMARKS
FERGUS FALLS   SUNNY     45  28  53 NW9       29.99S
WHEATON        SUNNY     46  27  46 N14G22    30.01S
MORRIS         CLOUDY    46  28  49 N13       29.96S
ALEXANDRIA     SUNNY     46  26  45 N14       29.96S
ELBOW LAKE     FAIR      44  24  44 N12G17    29.98S
WADENA         SUNNY     45  27  49 NW9       29.95S
GLENWOOD       CLOUDY    46  27  46 N15       29.95F
APPLETON       CLOUDY    48  27  43 N16G25    29.96S
BENSON         PTSUNNY   50  25  37 NE13G18   29.97F
ORTONVILLE     MOSUNNY   46  27  46 N18       29.97S
MADISON        MOSUNNY   48  32  53 NE16G23   29.97R
WILLMAR        FAIR      48  34  57 NE14G21   29.96R
$$
MNZ033>034-036-042>043-049>051-058-059-281900-
   Central Minnesota

CITY           SKY/WX    TMP DP  RH WIND       PRES   REMARKS
ST CLOUD       CLOUDY    45  30  55 N14       29.94F
6HR MIN TEMP:  31; 6HR MAX TEMP:  45;

SAUK CENTRE    FAIR      42  26  52 N13G18    29.95F
PAYNESVILLE    MOSUNNY   44  30  58 N14       29.95F
AITKIN         MOSUNNY   46  25  42 W7        29.92S
PINE RIVER     SUNNY     45  25  45 NW9       29.96S
BRAINERD       SUNNY     43  22  43 MISG      29.94S
STAPLES        SUNNY     43  25  49 NW13      29.95S
LONG PRAIRIE   FAIR      43  28  56 NW8       29.95S
LITTLE FALLS   SUNNY     43  23  45 N7        29.95S
LITCHFIELD     MOSUNNY   45  32  61 N9        29.96S
BUFFALO        CLOUDY    44  29  56 NW7       29.96S
MAPLE LAKE     CLOUDY    45  32  60 N10       29.97S
HUTCHINSON     SUNNY     44  34  67 N6        29.97S
$$
MNZ037-044-045-052-053-281900-
   East Central Minnesota

CITY           SKY/WX    TMP DP  RH WIND       PRES   REMARKS
PRINCETON      CLOUDY    46  30  53 NW7       29.95S
MORA           MOSUNNY   43  30  61 NW10G18   29.96S
CAMBRIDGE      CLOUDY    45  28  53 N6        29.92F
RUSH CITY      CLOUDY    42  28  56 NW7       29.94F
MOOSE LAKE     PTSUNNY   45  27  49 W9        29.91S
HINCKLEY       FAIR      43  30  61 W9G17     29.93S
CLOQUET        PTSUNNY   41  25  52 W14       29.90R
MCGREGOR       MOSUNNY   43  28  56 W9G16     29.92S
$$
MNZ071>073-080-081-089-090-097-098-281900-
   Southwest Minnesota

CITY           SKY/WX    TMP DP  RH WIND       PRES   REMARKS
MONTEVIDEO     CLOUDY    48  32  53 NE15      29.96S
GRANITE FALLS  MOSUNNY   46  33  59 NE8G17    29.99R
CANBY          CLOUDY    47  30  51 NE9G21    29.98R
MARSHALL       CLOUDY    44  30  57 NE17      29.96F
REDWOOD FALLS  MOSUNNY   45  30  55 N12       29.96R
OLIVIA         CLOUDY    45  32  61 N12       29.96R
PIPESTONE      CLOUDY    43  27  52 NE17      29.93S
WINDOM         CLOUDY    45  32  61 N13G18    29.94S
WORTHINGTON    CLOUDY    41  31  67 NE15      29.93S
JACKSON        CLOUDY    43  32  65 NE12G18   29.94S
TRACY          MOSUNNY   44  33  65 NE15      29.95F
SLAYTON        CLOUDY    40  30  67 NE10G20   29.94S
$$
MNZ065>067-074>077-082>085-091>093-281900-
   South Central Minnesota

CITY           SKY/WX    TMP DP  RH WIND       PRES   REMARKS
MANKATO        CLOUDY    45  31  58 NE8       29.95R
NEW ULM        CLOUDY    43  30  61 N5        29.96R
ST JAMES       CLOUDY    43  34  70 NE8       29.96S
FAIRMONT       CLOUDY    43  33  68 NE10      29.93F
GLENCOE        CLOUDY    46  35  65 NW10G16   29.95S
FARIBAULT      CLOUDY    46  30  53 N6        29.94R
OWATONNA       CLOUDY    45  30  57 N6        29.93S
WASECA         CLOUDY    43  32  65 CALM      29.95R
ALBERT LEA     CLOUDY    41  30  65 CALM      29.93S
$$
MNZ078>079-086>088-094>096-281900-
   Southeast Minnesota

CITY           SKY/WX    TMP DP  RH WIND       PRES   REMARKS
ROCHESTER      CLOUDY    43  32  65 VRB5      29.93R
6HR MIN TEMP:  31; 6HR MAX TEMP:  43;

RED WING       CLOUDY    46  23  39 NE7       29.93R
STANTON        CLOUDY    46  31  56 NW6       29.93R
DODGE CENTER   CLOUDY    43  32  65 N5        29.93S
WINONA         CLOUDY    45  32  61 CALM      29.94R
AUSTIN         CLOUDY    43  32  65 N5        29.93S
PRESTON        CLOUDY    42  29  60 CALM      29.93R
$$
ABBREVIATIONS USED IN REMARKS
   TC - TEMPERATURES IN CELSIUS
  WCI - WIND CHILL INDEX
   HX - HEAT INDEX
  VSB - VISIBILITY
$$




USA.gov is the U.S. government's official web portal to all federal, state and local government web resources and services.